Flag for Netherlands Weather past 2 weeks in Ede, Netherlands

46 °F

Partly cloudy.

Feels Like: 40 °F
Forecast: 43 / 54 °F
Wind: 16 mph from Southwest

Location: Deelen

Current Time: Nov 29, 2015 at 5:08:16 AM

Latest Report: Nov 29, 2015 at 4:25 AM

Visibility: N/A

Pressure: 29.68 "Hg

Humidity: 93%

Dew point: 45 °F

Location of EdeLocation

Historic Weather in Ede — Graph


Ede temperature yesterday

Maximum temperature yesterday: 45 °F (at 11:55 AM)
Minimum temperature yesterday: 36 °F (at 8:25 AM)
Average temperature yesterday: 42 °F

Past Weeks' High & Low Weather Summary

High59 °F (Nov 17, 8:25 PM)100% (Nov 14, 6:25 AM)30.21 "Hg (Nov 14, 6:25 AM)
Low27 °F (Nov 23, 8:25 AM)66% (Nov 23, 1:55 PM)29.33 "Hg (Nov 21, 6:25 AM)
Average44 °F89%29.82 "Hg
* Reported Nov 14 3:25 AM — Nov 29 3:25 AM, Ede, Weather by CustomWeather, © 2015

Note: Actual official high and low records may vary slightly from our data, if they occured in-between our weather recording intervals... More about our weather records


Ede weather history for previous 24 hours

Time TempWeatherWind HumidityBarometerVisibility
3:25 AM
Sun, Nov 29
45 °FSprinkles. Passing clouds.10 mph100%29.68 "Hg4 mi
2:55 AM45 °FRain showers. Partly cloudy.13 mph93%29.68 "Hg4 mi
2:25 AM45 °FDrizzle. Mostly cloudy.18 mph93%29.68 "HgN/A
1:55 AM45 °FMostly cloudy.21 mph93%29.68 "HgN/A
1:25 AM45 °FOvercast.17 mph87%29.68 "HgN/A
12:55 AM45 °FOvercast.23 mph87%29.68 "HgN/A
12:25 AM45 °FOvercast.23 mph87%29.68 "HgN/A
11:55 PM
Sat, Nov 28
45 °FMostly cloudy.25 mph87%29.68 "HgN/A
10:55 PM43 °FSprinkles. Passing clouds.21 mph93%29.71 "HgN/A
10:25 PM43 °FDrizzle. Mostly cloudy.23 mph87%29.71 "HgN/A
9:25 PM43 °FMostly cloudy.21 mph87%29.74 "HgN/A
8:55 PM43 °FPartly cloudy.18 mph93%29.77 "HgN/A
8:25 PM43 °FMostly cloudy.21 mph87%29.80 "HgN/A
7:55 PM43 °FDrizzle. Overcast.21 mph87%29.80 "HgN/A
7:25 PM43 °FDrizzle. Overcast.18 mph81%29.83 "HgN/A
6:55 PM41 °FLight rain. Mostly cloudy.17 mph87%29.83 "HgN/A
6:25 PM43 °FDrizzle. Mostly cloudy.16 mph76%29.86 "HgN/A
5:55 PM43 °FPassing clouds.16 mph76%29.86 "HgN/A
5:25 PM43 °FPassing clouds.15 mph76%29.86 "HgN/A
4:55 PM43 °FPassing clouds.15 mph76%29.89 "HgN/A
4:25 PM43 °FMostly cloudy.14 mph76%29.89 "HgN/A
3:55 PM43 °FPartly sunny.13 mph76%29.89 "HgN/A
3:25 PM43 °FScattered clouds.14 mph76%29.89 "HgN/A
2:55 PM45 °FQuite cool.13 mph71%29.89 "HgN/A
2:25 PM45 °FPassing clouds.12 mph71%29.89 "HgN/A
1:55 PM45 °FScattered clouds.9 mph71%29.89 "HgN/A
1:25 PM45 °FPartly sunny.10 mph76%29.89 "HgN/A
12:55 PM45 °FPartly sunny.12 mph76%29.89 "HgN/A
12:25 PM45 °FQuite cool.13 mph76%29.89 "HgN/A
11:55 AM45 °FScattered clouds.12 mph76%29.86 "HgN/A
11:25 AM43 °FScattered clouds.12 mph81%29.86 "HgN/A
10:55 AM43 °FPassing clouds.10 mph81%29.86 "HgN/A
10:25 AM41 °FPassing clouds.8 mph87%29.86 "HgN/A
9:55 AM39 °FPassing clouds.8 mph93%29.83 "HgN/A
9:25 AM39 °FPassing clouds.7 mph93%29.83 "HgN/A
8:55 AM37 °FPassing clouds.8 mph100%29.83 "HgN/A
8:25 AM36 °FPassing clouds.8 mph100%29.80 "HgN/A
7:55 AM39 °FPassing clouds.7 mph93%29.80 "HgN/A
7:25 AM41 °FPartly cloudy.9 mph93%29.77 "HgN/A
6:55 AM41 °FDrizzle. Mostly cloudy.12 mph93%29.74 "HgN/A
6:25 AM43 °FLight rain. Partly cloudy.9 mph87%29.74 "HgN/A
5:55 AM43 °FMostly cloudy.12 mph93%29.71 "HgN/A
5:25 AM43 °FPartly cloudy.16 mph93%29.68 "Hg5 mi
Weather by CustomWeather, © 2015

See weather overviewHow to use our weather pages